[[{"header":{"parameterUnit":"m.s-1","parameterCategory":1,"la1":30.2991,"la2":30.254,"lo1":-89.0895,"lo2":-89.0444,"dy":0.0017,"dx":0.0017,"nx":28,"ny":28,"refTime":"2025-03-20T21:00:00:Z","depth":0,"parameterNumber":2,"parameterNumberName":"U-component_of_WINDS"},"data":[0,0,0,0,0,0,0,0,0,0,0,0,0,0,0,0,0,0,0,0,0,0,0,0,0,0,0,0,0,0,0,0,0,0,0,0,0,0,0,0,0,0,0,0,0,0,0,0,0,0,0,0,0,0,0,0,0,0,0.5432,0.5434,0,0.56,0.5602,0.5604,0.5671,0.567,0.567,0.567,0.5845,0.585,0.5855,0,0,0,0,0,0,0,0,0,0,0,0,0,0.5171,0.5175,0.5432,0.5434,0.5436,0.56,0.5602,0.5604,0.5671,0.567,0.567,0.5669,0.5843,0.5849,0.5855,0,0,0,0,0,0,0,0,0,0,0,0,0,0.5306,0.5176,0.5431,0.5489,0.5496,0.5599,0.5602,0.5605,0.5671,0.567,0.567,0.5669,0.5841,0.5849,0.5856,0.5916,0,0,0.5879,0.5883,0,0,0,0,0,0,0,0,0.5298,0.5315,0.5478,0.5485,0.5493,0.5614,0.5574,0.5709,0.5671,0.5605,0.567,0.5669,0.5769,0.5782,0.5815,0.5924,0.5932,0.588,0.5885,0.5888,0.589,0,0,0,0,0,0,0,0.5289,0.5309,0.5498,0.5481,0.549,0.5507,0.5525,0.56,0.5688,0.561,0.5616,0.5634,0.5773,0.5808,0.582,0.5934,0.588,0.5887,0.5891,0.5894,0.6099,0.61,0,0,0,0,0,0,0.5269,0.53,0.5493,0.5503,0.5392,0.5512,0.5533,0.5576,0.5688,0.5704,0.5635,0.5637,0.5795,0.5811,0.5826,0.5903,0.5888,0.5895,0.5899,0.6099,0.61,0.6101,0,0,0,0,0,0,0.5264,0.5286,0.5486,0.5403,0.543,0.5517,0.5565,0.5579,0.5615,0.5706,0.5722,0.5654,0.5795,0.5816,0.5893,0.591,0.5898,0.5905,0.6098,0.6099,0.61,0.6057,0,0,0,0,0,0,0.5256,0.5283,0.5307,0.5403,0.5434,0.5549,0.5566,0.5583,0.5627,0.5631,0.5729,0.5744,0.5796,0.5881,0.59,0.592,0.5911,0.6096,0.6098,0.61,0.6057,0.6057,0.6056,0,0,0,0,0,0.5246,0.5289,0.5307,0.533,0.5465,0.555,0.5568,0.5626,0.5628,0.5652,0.5711,0.5741,0.5905,0.5888,0.5911,0.5933,0.6096,0.6098,0.61,0.6058,0.6057,0.6056,0,0,0,0,0,0,0.5193,0.5302,0.5325,0.5399,0.5465,0.5561,0.5594,0.5623,0.569,0.5692,0.5762,0.5783,0.5854,0.5902,0.5881,0.5996,0.6002,0.6009,0.5963,0.5963,0.5962,0.595,0.5918,0,0,0,0,0,0.519,0.5249,0.5342,0.5399,0.543,0.5506,0.5545,0.5584,0.5655,0.5683,0.5748,0.5816,0.5883,0.5926,0.5992,0.6064,0.6086,0.6091,0.609,0.6089,0.6094,0.6135,0.6138,0.6107,0.6107,0.6107,0,0,0.5184,0.5251,0.5285,0.539,0.5445,0.5505,0.5529,0.5592,0.5637,0.5693,0.5769,0.5819,0.59,0.5974,0.601,0.6016,0.6107,0.6092,0.609,0.6096,0.6137,0.614,0.6143,0.6109,0.6108,0.6108,0,0,0.5205,0.5261,0.5315,0.5369,0.5452,0.5502,0.5514,0.5606,0.5641,0.5718,0.5761,0.5816,0.593,0.5985,0.6029,0.6068,0.6098,0.6088,0.6085,0.6124,0.6127,0.6129,0.6143,0.6147,0.6093,0.6092,0.6092,0,0.5188,0.5279,0.5339,0.5399,0.5444,0.5496,0.555,0.5601,0.5701,0.5731,0.5736,0.5878,0.5937,0.6024,0.6034,0.6067,0.6084,0.6078,0.6121,0.6125,0.6128,0.6142,0.6147,0.6091,0.6091,0.6091,0.6091,0,0.5254,0.5317,0.535,0.5444,0.5493,0.555,0.5619,0.5661,0.5695,0.5744,0.5822,0.5893,0.5975,0.5998,0.6033,0.6091,0.6092,0.6108,0.6115,0.6128,0.6142,0.6148,0.6088,0.6089,0.6089,0.609,0,0,0.5247,0.5372,0.5384,0.5426,0.5521,0.5571,0.563,0.5708,0.5743,0.581,0.5862,0.5956,0.5971,0.602,0.6061,0.6095,0.6121,0.6107,0.611,0.6107,0.6189,0.6176,0.6181,0.6141,0.6143,0.6144,0.6182,0,0.528,0.5388,0.5442,0.5527,0.5585,0.5634,0.5686,0.5749,0.5797,0.5854,0.5907,0.5972,0.5987,0.6017,0.6053,0.611,0.6138,0.6108,0.6191,0.6193,0.6169,0.6189,0.6176,0.6209,0.6188,0.6189,0.619,0,0.5334,0.5399,0.5488,0.5574,0.5601,0.5646,0.5722,0.5776,0.5849,0.5881,0.5934,0.5974,0.6038,0.604,0.613,0.6108,0.6145,0.6178,0.6181,0.6191,0.6192,0.6199,0.622,0.6225,0.6199,0.6198,0.6198,0,0.5319,0.5429,0.5497,0.5532,0.5635,0.5665,0.5709,0.5782,0.5825,0.5891,0.592,0.5993,0.6033,0.6089,0.6148,0.6144,0.6232,0.6239,0.626,0.6259,0.6277,0.6275,0.6304,0.63,0.63,0.63,0.63,0,0.535,0.5403,0.5491,0.5533,0.5593,0.5656,0.5714,0.5762,0.5826,0.5878,0.5925,0.5973,0.6047,0.6105,0.6151,0.6218,0.6236,0.6264,0.6276,0.626,0.6256,0.6285,0.6285,0.6301,0.6301,0.6301,0.6301,0,0.5345,0.5406,0.5483,0.5573,0.5597,0.5637,0.5715,0.5757,0.5806,0.5871,0.589,0.5967,0.6037,0.6101,0.6194,0.6225,0.6293,0.6308,0.6268,0.6274,0.6292,0.629,0.6341,0.6351,0.634,0.634,0.634,0,0.5361,0.5402,0.5496,0.5534,0.5577,0.5637,0.5681,0.5744,0.5787,0.5873,0.5905,0.5977,0.6039,0.6148,0.6213,0.6284,0.6302,0.6315,0.6313,0.6295,0.6302,0.6298,0.6303,0.6314,0.6314,0.6314,0.6313,0,0.5382,0.541,0.5471,0.5542,0.5593,0.5653,0.5714,0.5742,0.5816,0.5863,0.5934,0.5982,0.6076,0.6147,0.6226,0.6272,0.6305,0.6313,0.6322,0.6306,0.6281,0.6295,0.6266,0.6312,0.6312,0.6312,0.6312,0.6312,0.5388,0.5427,0.5499,0.5565,0.5617,0.5673,0.5716,0.577,0.583,0.5911,0.5944,0.6016,0.6088,0.6196,0.6242,0.6299,0.6306,0.6319,0.6322,0.6324,0.6321,0.6271,0.6314,0.6314,0.6314,0.6314,0.6314,0,0.5412,0.5461,0.5521,0.5604,0.5656,0.5681,0.5749,0.5791,0.5854,0.5917,0.5976,0.6057,0.6126,0.6196,0.6269,0.6302,0.6319,0.6319,0.6317,0.6328,0.6311,0.6296,0.6304,0.6304,0.6304,0.6304,0.6304,0.6304,0.5431,0.5498,0.5534,0.5627,0.5675,0.5745,0.5782,0.5834,0.5884,0.5972,0.603,0.6074,0.614,0.6218,0.6283,0.6302,0.6326,0.6322,0.6345,0.6329,0.6329,0.6329,0.6315,0.6327,0.6327,0.6357,0.6357,0.6357]},{"header":{"parameterUnit":"m.s-1","parameterCategory":1,"la1":30.2991,"la2":30.254,"lo1":-89.0895,"lo2":-89.0444,"dy":0.0017,"dx":0.0017,"nx":28,"ny":28,"refTime":"2025-03-20T21:00:00:Z","depth":0,"parameterNumber":3,"parameterNumberName":"V-component_of_WINDS"},"data":[0,0,0,0,0,0,0,0,0,0,0,0,0,0,0,0,0,0,0,0,0,0,0,0,0,0,0,0,0,0,0,0,0,0,0,0,0,0,0,0,0,0,0,0,0,0,0,0,0,0,0,0,0,0,0,0,0,0,3.6114,3.6114,0,3.608,3.6079,3.6079,3.608,3.6081,3.6081,3.6082,3.604,3.6038,3.6036,0,0,0,0,0,0,0,0,0,0,0,0,0,3.6176,3.6175,3.6114,3.6114,3.6114,3.608,3.6079,3.6079,3.608,3.6081,3.6081,3.6082,3.604,3.6038,3.6036,0,0,0,0,0,0,0,0,0,0,0,0,0,3.6146,3.6174,3.6115,3.611,3.611,3.608,3.6079,3.6079,3.608,3.6081,3.6082,3.6082,3.6041,3.6038,3.6036,3.6006,0,0,3.6029,3.6028,0,0,0,0,0,0,0,0,3.6147,3.6143,3.6111,3.6111,3.611,3.6085,3.6086,3.6054,3.608,3.6091,3.6082,3.6083,3.6054,3.605,3.6042,3.6004,3.6002,3.6029,3.6027,3.6026,3.6025,0,0,0,0,0,0,0,3.615,3.6145,3.6101,3.6111,3.611,3.6108,3.6105,3.608,3.6068,3.609,3.609,3.6086,3.6053,3.6044,3.6041,3.6002,3.6029,3.6026,3.6025,3.6024,3.5937,3.5937,0,0,0,0,0,0,3.6153,3.6147,3.6102,3.61,3.6131,3.6107,3.6103,3.6092,3.6069,3.6066,3.6086,3.6087,3.6048,3.6044,3.6039,3.6003,3.6026,3.6024,3.6022,3.5938,3.5937,3.5936,0,0,0,0,0,0,3.6155,3.6149,3.6103,3.6123,3.6117,3.6105,3.6093,3.6091,3.6082,3.6066,3.6063,3.6079,3.6048,3.6043,3.6015,3.6002,3.6023,3.6021,3.5939,3.5938,3.5937,3.593,0,0,0,0,0,0,3.6156,3.615,3.614,3.6123,3.6116,3.6081,3.6092,3.609,3.6079,3.608,3.6058,3.6056,3.6049,3.6018,3.6013,3.5999,3.6019,3.594,3.5939,3.5937,3.5931,3.5929,3.5926,0,0,0,0,0,3.6159,3.6138,3.6139,3.6134,3.6104,3.608,3.6076,3.607,3.6078,3.6067,3.6056,3.6056,3.6004,3.6016,3.6009,3.5994,3.5941,3.5939,3.5937,3.5932,3.5929,3.5926,0,0,0,0,0,0,3.6151,3.6135,3.6137,3.611,3.6097,3.6081,3.6066,3.6067,3.6049,3.605,3.6042,3.6037,3.6009,3.5999,3.6012,3.5964,3.5973,3.597,3.5972,3.5969,3.5966,3.5969,3.6017,0,0,0,0,0,3.6147,3.6131,3.6117,3.6095,3.6089,3.6079,3.6068,3.6065,3.605,3.6043,3.6031,3.6014,3.5994,3.5981,3.5961,3.593,3.5925,3.5916,3.5914,3.5912,3.5909,3.5891,3.5887,3.593,3.593,3.593,0,0,3.6136,3.6126,3.6116,3.6093,3.6083,3.6065,3.6074,3.6054,3.604,3.604,3.6013,3.6003,3.5984,3.5954,3.5941,3.5945,3.5896,3.5909,3.5908,3.5906,3.5889,3.5885,3.5881,3.5929,3.5929,3.5929,0,0,3.6109,3.61,3.6081,3.607,3.6055,3.6049,3.6044,3.6028,3.6022,3.5996,3.5995,3.5977,3.5943,3.5929,3.5917,3.5886,3.5885,3.5879,3.5866,3.5849,3.5846,3.5842,3.5831,3.5827,3.5876,3.5876,3.5876,0,3.6098,3.6073,3.607,3.6052,3.6041,3.6042,3.6022,3.6011,3.5988,3.598,3.5986,3.5943,3.593,3.5897,3.589,3.588,3.5874,3.5882,3.5847,3.5844,3.5841,3.5829,3.5825,3.5876,3.5876,3.5876,3.5876,0,3.606,3.6043,3.6029,3.6011,3.5998,3.5978,3.5971,3.5958,3.5956,3.5949,3.5922,3.5906,3.5884,3.5876,3.5873,3.5842,3.5846,3.5849,3.5858,3.5836,3.5825,3.5821,3.5875,3.5875,3.5875,3.5876,0,0,3.6027,3.6008,3.6003,3.5994,3.5977,3.5963,3.5942,3.5923,3.5912,3.5897,3.5879,3.585,3.5853,3.584,3.5836,3.5821,3.5796,3.5826,3.5825,3.5821,3.5761,3.5759,3.5754,3.5796,3.5795,3.5794,3.5763,0,3.5998,3.5965,3.5961,3.5931,3.5914,3.5915,3.5897,3.5884,3.5876,3.5859,3.585,3.583,3.5836,3.5828,3.5814,3.5802,3.5784,3.5805,3.5777,3.5776,3.5782,3.5749,3.5746,3.5717,3.5759,3.5758,3.5757,0,3.596,3.5946,3.5914,3.59,3.5893,3.5877,3.5859,3.5844,3.5828,3.5823,3.581,3.5807,3.5784,3.5795,3.5762,3.5776,3.5765,3.5758,3.5756,3.5753,3.5766,3.5744,3.5707,3.5703,3.5751,3.5751,3.5752,0,3.5938,3.5911,3.5889,3.5882,3.5865,3.5854,3.5846,3.5831,3.582,3.5803,3.5795,3.5775,3.5764,3.5747,3.5739,3.5747,3.5707,3.5717,3.5701,3.5701,3.5692,3.5693,3.5653,3.5685,3.5685,3.5685,3.5685,0,3.5906,3.5887,3.588,3.5866,3.5844,3.5839,3.5817,3.5809,3.5796,3.5779,3.5777,3.5761,3.5751,3.5733,3.5726,3.57,3.5694,3.5689,3.5687,3.5689,3.569,3.5681,3.5683,3.5684,3.5684,3.5684,3.5684,0,3.5879,3.5873,3.5849,3.5836,3.5832,3.5816,3.5803,3.5789,3.5782,3.5761,3.5755,3.5743,3.5722,3.5712,3.5685,3.568,3.565,3.565,3.5657,3.5656,3.5641,3.5642,3.5594,3.5587,3.5624,3.5623,3.5623,0,3.5859,3.5844,3.583,3.582,3.5812,3.5796,3.5785,3.5779,3.5767,3.5749,3.5736,3.5715,3.5699,3.5664,3.5651,3.563,3.5629,3.5614,3.5626,3.5628,3.5629,3.563,3.5628,3.5611,3.5611,3.5611,3.561,0,3.5824,3.5822,3.5807,3.5792,3.5779,3.5766,3.5753,3.5744,3.5736,3.5723,3.5703,3.569,3.5663,3.5642,3.562,3.5609,3.5608,3.5607,3.5602,3.5604,3.5608,3.5606,3.565,3.5608,3.5608,3.5608,3.5608,3.5608,3.5799,3.5786,3.5775,3.5758,3.5749,3.5737,3.5723,3.5715,3.5699,3.5678,3.5675,3.5653,3.5637,3.5608,3.5597,3.5578,3.5582,3.5575,3.5573,3.5571,3.5571,3.5612,3.5574,3.5574,3.5574,3.5574,3.5574,0,3.5764,3.5757,3.5742,3.5725,3.5712,3.5715,3.57,3.5688,3.567,3.5656,3.564,3.5616,3.5596,3.5582,3.5561,3.5549,3.5547,3.5543,3.5544,3.5541,3.5569,3.5575,3.5545,3.5545,3.5545,3.5545,3.5545,3.5545,3.5744,3.5723,3.572,3.5694,3.5686,3.5666,3.5658,3.5646,3.5636,3.561,3.5594,3.5586,3.5572,3.555,3.553,3.5527,3.5519,3.5515,3.5511,3.5536,3.5539,3.5542,3.5548,3.5513,3.5513,3.5485,3.5485,3.5485]}]]